Findlay, OH

10:16 PM EST on December 08, 2019 (GMT -0500)
Findlay

Weather History for KFDY - October, 2019

Change the Weather History Date:

Tuesday, October 29, 2019

  Actual Average Record
Temperature  
Mean Temperature 54 °F -  
Max Temperature 64 °F 55 °F 77 °F (1999)
Min Temperature 46 °F 37 °F 22 °F (1965)
Degree Days  
Heating Degree Days 10    
Growing Degree Days 4 (Base 50)    
Moisture  
Dew Point 49 °F    
Average Humidity 81    
Maximum Humidity 93    
Minimum Humidity 63    
Precipitation  
Precipitation 0.00 in - - ()
Sea Level Pressure  
Sea Level Pressure 30.11 in    
Wind  
Wind Speed 7 mph (WSW)    
Max Wind Speed 14 mph    
Max Gust Speed -    
Visibility 7 miles    
Events Rain    
Averages and records for this station are not official NWS values.
T = Trace of Precipitation, MM = Missing Value Source: NWS Daily Summary

Daily Weather History Graph

Daily Weather History Graph

Search for Another Location

Airport or City:

Astronomy

Oct. 29, 2019 Rise Set
Actual Time 8:01 AM EDT 6:34 PM EDT
Civil Twilight 7:33 AM EDT 7:02 PM EDT
Nautical Twilight 7:01 AM EDT 7:35 PM EDT
Astronomical Twilight 6:29 AM EDT 8:07 PM EDT
Moon 9:34 AM EDT (10/29) 7:57 PM EDT (10/29)
Length of Visible Light 11h 29m
Length of Day
10h 32m
Waxing Crescent, 3% of the Moon is Illuminated
Oct 29
Waxing Crescent
Nov 4
First Quarter
Nov 12
Full
Nov 19
Last Quarter
Nov 26
New

Hourly Weather History & Observations

Time (EDT) Temp. Windchill Dew Point Humidity Pressure Visibility Wind Dir Wind Speed Gust Speed Precip Events Conditions
12:53 AM 50.0 °F - 44.1 °F 80% 30.00 in 10.0 mi SSE 6.9 mph - N/A   Clear
1:53 AM 48.9 °F - 44.1 °F 83% 30.00 in 10.0 mi SSE 4.6 mph - N/A   Clear
2:53 AM 48.9 °F - 44.1 °F 83% 30.00 in 10.0 mi South 5.8 mph - N/A   Clear
3:53 AM 46.0 °F 43.9 °F 42.1 °F 86% 30.00 in 10.0 mi SW 4.6 mph - N/A   Clear
4:53 AM 48.0 °F - 45.0 °F 89% 30.02 in 4.0 mi WSW 5.8 mph - N/A   Clear
5:33 AM 50.0 °F - 46.9 °F 89% 30.04 in 3.0 mi WSW 6.9 mph - N/A   Mostly Cloudy
5:53 AM 52.0 °F - 48.9 °F 89% 30.04 in 4.0 mi WSW 5.8 mph - N/A   Overcast
6:04 AM 52.0 °F - 48.9 °F 89% 30.05 in 4.0 mi WSW 6.9 mph - N/A   Overcast
6:53 AM 52.0 °F - 48.9 °F 89% 30.04 in 5.0 mi SSW 5.8 mph - N/A   Overcast
7:02 AM 52.0 °F - 50.0 °F 93% 30.05 in 5.0 mi SSW 5.8 mph - N/A   Overcast
7:28 AM 53.1 °F - 50.0 °F 89% 30.06 in 5.0 mi SW 6.9 mph - N/A   Overcast
7:53 AM 54.0 °F - 50.0 °F 86% 30.06 in 5.0 mi SW 6.9 mph - N/A   Overcast
8:41 AM 53.1 °F - 51.1 °F 93% 30.07 in 3.0 mi South 6.9 mph - N/A   Overcast
8:53 AM 53.1 °F - 51.1 °F 93% 30.07 in 4.0 mi South 6.9 mph - N/A   Overcast
9:02 AM 54.0 °F - 51.1 °F 90% 30.08 in 4.0 mi South 8.1 mph - N/A   Overcast
9:53 AM 55.0 °F - 51.1 °F 86% 30.09 in 7.0 mi South 9.2 mph - N/A   Overcast
10:02 AM 55.0 °F - 51.1 °F 86% 30.09 in 7.0 mi South 9.2 mph - N/A   Overcast
10:53 AM 57.0 °F - 51.1 °F 81% 30.10 in 8.0 mi SSW 9.2 mph - N/A   Overcast
11:53 AM 59.0 °F - 51.1 °F 75% 30.13 in 7.0 mi SW 12.7 mph - N/A   Overcast
12:51 PM 60.8 °F - 50.0 °F 68% 30.14 in 7.0 mi SW 10.4 mph - N/A   Overcast
12:53 PM 62.1 °F - 51.1 °F 67% 30.13 in 7.0 mi SW 13.8 mph - N/A   Overcast
1:25 PM 63.0 °F - 50.0 °F 63% 30.13 in 9.0 mi WSW 10.4 mph - N/A   Mostly Cloudy
1:53 PM 63.0 °F - 50.0 °F 63% 30.10 in 10.0 mi SSW 10.4 mph - N/A   Mostly Cloudy
2:16 PM 63.0 °F - 50.0 °F 63% 30.10 in 7.0 mi SW 8.1 mph - N/A   Overcast
2:53 PM 63.0 °F - 50.0 °F 63% 30.09 in 10.0 mi SSW 9.2 mph - N/A   Overcast
3:53 PM 62.1 °F - 50.0 °F 65% 30.11 in 5.0 mi WSW 6.9 mph - N/A   Haze
4:53 PM 62.1 °F - 51.1 °F 67% 30.14 in 5.0 mi WSW 5.8 mph - N/A   Haze
5:53 PM 60.1 °F - 51.1 °F 72% 30.14 in 6.0 mi West 8.1 mph - N/A   Haze
6:22 PM 59.0 °F - 51.1 °F 75% 30.15 in 10.0 mi WNW 5.8 mph - N/A   Overcast
6:53 PM 57.9 °F - 52.0 °F 81% 30.16 in 6.0 mi West 3.5 mph - N/A   Haze
7:53 PM 57.9 °F - 52.0 °F 81% 30.19 in 10.0 mi WNW 5.8 mph - N/A   Overcast
8:19 PM 54.0 °F - 50.0 °F 86% 30.21 in 10.0 mi NW 11.5 mph - 0.00 in Rain Light Rain
8:53 PM 53.1 °F - 48.9 °F 86% 30.20 in 10.0 mi NNW 8.1 mph - 0.00 in   Overcast
9:15 PM 52.0 °F - 48.0 °F 86% 30.21 in 10.0 mi NNW 9.2 mph - N/A   Overcast
9:53 PM 52.0 °F - 46.9 °F 83% 30.21 in 10.0 mi NNW 8.1 mph - N/A   Overcast
10:53 PM 51.1 °F - 46.9 °F 86% 30.23 in 10.0 mi NNW 5.8 mph - N/A   Overcast
11:13 PM 51.1 °F - 46.9 °F 86% 30.22 in 10.0 mi NNW 4.6 mph - N/A   Overcast
11:23 PM 51.1 °F - 46.9 °F 86% 30.22 in 10.0 mi NNW 4.6 mph - N/A   Overcast
11:53 PM 51.1 °F - 46.9 °F 86% 30.23 in 10.0 mi NNW 6.9 mph - N/A   Overcast